Location: Dammartin
(48.9032°N, 1.6195°E)
Time: 12:29:16
(UTC+00:00)

ATLAS 5 CENTAUR R/B - Pass Details

Date: 03 February 2023
Orbit: 460 x 1178 km, 63.3° (Epoch: 24 March)

Event Time Altitude Azimuth Distance (km) Brightness Sun altitude
Rises 18:31:50 0° 300° (WNW) 2,702 5.7 -16.3°
Reaches altitude 10° 18:34:59 10° 329° (NNW) 1,930 4.4 -16.8°
Maximum altitude 18:37:10 14° 359° (N) 1,799 3.9 -17.2°
Enters shadow 18:39:08 11° 25° (NNE) 2,043 3.9 -17.5°
